Location: Oak Glen
(34.0495°N, 116.9470°E)
Time: 05:22:52
(UTC-08:00)

OTV 5 (USA 277) - Pass Details

Date: 12 October 2017
Orbit: 404 x 417 km, 43.0° (Epoch: 07 September)

Event Time Altitude Azimuth Distance (km) Brightness Sun altitude
Rises 04:16:55 0° 276° (W) 2,346 ? -20.4°
Reaches altitude 10° 04:19:19 10° 291° (WNW) 1,485 ? -20.9°
Maximum altitude 04:22:04 23° 346° (NNW) 938 ? -21.5°
Enters shadow 04:22:22 22° 355° (N) 946 ? -21.5°
